[[{"header":{"parameterUnit":"m.s-1","parameterCategory":1,"la1":30.2991,"la2":30.254,"lo1":-89.0895,"lo2":-89.0444,"dy":0.0017,"dx":0.0017,"nx":28,"ny":28,"refTime":"2025-08-14T03:00:00:Z","depth":0,"parameterNumber":2,"parameterNumberName":"U-component_of_WINDS"},"data":[0,0,0,0,0,0,0,0,0,0,0,0,0,0,0,0,0,0,0,0,0,0,0,0,0,0,0,0,0,0,0,0,0,0,0,0,0,0,0,0,0,0,0,0,0,0,0,0,0,0,0,0,0,0,0,0,0,0,2.5393,2.5394,0,2.5423,2.5423,2.5423,2.5362,2.536,2.5358,2.5356,2.5388,2.5391,2.5393,0,0,0,0,0,0,0,0,0,0,0,0,0,2.5284,2.5286,2.5393,2.5394,2.5394,2.5423,2.5423,2.5423,2.5362,2.536,2.5357,2.5355,2.5387,2.539,2.5394,0,0,0,0,0,0,0,0,0,0,0,0,0,2.5324,2.5287,2.5393,2.5367,2.5365,2.5423,2.5423,2.5424,2.5363,2.536,2.5357,2.5354,2.5386,2.539,2.5394,2.548,0,0,2.5407,2.5408,0,0,0,0,0,0,0,0,2.5322,2.5328,2.537,2.5369,2.5367,2.5385,2.5396,2.5442,2.5363,2.5364,2.5356,2.5352,2.539,2.5393,2.5406,2.5481,2.5482,2.5407,2.5409,2.5411,2.5412,0,0,0,0,0,0,0,2.5319,2.5327,2.5405,2.5371,2.5369,2.5353,2.5356,2.5405,2.5393,2.5363,2.5359,2.5363,2.5388,2.5402,2.5406,2.5483,2.5407,2.541,2.5413,2.5415,2.5626,2.5629,0,0,0,0,0,0,2.532,2.5325,2.5404,2.5406,2.5336,2.5358,2.5361,2.5382,2.5393,2.5391,2.5366,2.536,2.5396,2.5401,2.5407,2.5504,2.5411,2.5415,2.5417,2.5623,2.5626,2.563,0,0,0,0,0,0,2.5318,2.5327,2.5403,2.5364,2.5372,2.5363,2.5388,2.5385,2.5398,2.5394,2.5392,2.5382,2.5394,2.5401,2.5461,2.5505,2.5417,2.5421,2.5619,2.5624,2.5628,2.5702,0,0,0,0,0,0,2.5315,2.5327,2.536,2.5365,2.5375,2.5457,2.5391,2.5387,2.5405,2.5398,2.5409,2.5408,2.5392,2.5455,2.5465,2.5509,2.5424,2.5615,2.5621,2.5627,2.5696,2.5709,2.572,0,0,0,0,0,2.5311,2.5381,2.5362,2.5371,2.5415,2.5459,2.5465,2.5445,2.5409,2.5441,2.5438,2.5407,2.5499,2.5462,2.5472,2.5518,2.5612,2.5619,2.5626,2.569,2.5706,2.572,0,0,0,0,0,0,2.5382,2.5381,2.536,2.5433,2.5447,2.5449,2.5489,2.5464,2.5488,2.5481,2.5456,2.5459,2.5523,2.5527,2.5486,2.5599,2.5549,2.5559,2.5594,2.5609,2.5621,2.5618,2.5427,0,0,0,0,0,2.5406,2.5442,2.5439,2.5504,2.5512,2.5499,2.5518,2.5501,2.5515,2.552,2.5522,2.5536,2.5567,2.5589,2.5618,2.5696,2.5696,2.5733,2.5745,2.5755,2.5763,2.5801,2.5817,2.5653,2.5653,2.5653,0,0,2.5456,2.546,2.5484,2.5518,2.5527,2.5563,2.5505,2.5547,2.5574,2.5527,2.5582,2.5584,2.5598,2.5666,2.5697,2.5672,2.5808,2.5764,2.5772,2.5775,2.581,2.5826,2.5839,2.5658,2.5657,2.5656,0,0,2.5566,2.5574,2.5627,2.5636,2.5648,2.5639,2.5652,2.5658,2.5656,2.5711,2.5676,2.5708,2.5764,2.5774,2.5786,2.5897,2.5868,2.5907,2.597,2.6008,2.6021,2.6032,2.6069,2.6082,2.5916,2.5916,2.5916,0,2.5627,2.5681,2.5658,2.5701,2.5716,2.5674,2.5726,2.5737,2.5759,2.577,2.5741,2.5808,2.5815,2.5883,2.591,2.5923,2.5935,2.5905,2.6021,2.6032,2.6042,2.6076,2.6091,2.592,2.592,2.5919,2.5919,0,2.5753,2.5791,2.5832,2.5852,2.5872,2.5921,2.5904,2.5927,2.5908,2.5902,2.5957,2.5963,2.5991,2.6007,2.599,2.6072,2.6056,2.6025,2.5973,2.6062,2.6094,2.6108,2.5927,2.5925,2.5924,2.5923,0,0,2.5909,2.5914,2.5929,2.5936,2.5946,2.5974,2.602,2.6046,2.6064,2.6081,2.6117,2.6164,2.6134,2.6148,2.6132,2.6166,2.6249,2.613,2.613,2.6149,2.6336,2.6358,2.6374,2.623,2.6233,2.6235,2.6334,0,2.6015,2.6092,2.6071,2.6148,2.618,2.614,2.6179,2.6189,2.6184,2.6211,2.6206,2.6238,2.6197,2.6205,2.6237,2.6232,2.6286,2.6225,2.6262,2.6264,2.6258,2.6391,2.6415,2.6508,2.6347,2.6349,2.6351,0,2.6149,2.6168,2.6247,2.6248,2.6261,2.6297,2.6317,2.6344,2.6354,2.6348,2.6362,2.6339,2.6382,2.6332,2.639,2.6349,2.6364,2.6364,2.6367,2.6368,2.6311,2.6393,2.6538,2.6551,2.6371,2.6369,2.6368,0,2.6251,2.6297,2.6349,2.6357,2.636,2.6385,2.6388,2.6395,2.6411,2.6429,2.6439,2.6463,2.6475,2.6494,2.6477,2.6442,2.6537,2.6486,2.6532,2.6532,2.6552,2.6551,2.6698,2.6566,2.6565,2.6565,2.6565,0,2.637,2.6419,2.6394,2.6426,2.6479,2.6455,2.6508,2.6506,2.6512,2.6542,2.651,2.6539,2.6516,2.6543,2.653,2.6579,2.6586,2.6581,2.6576,2.6582,2.6583,2.659,2.6582,2.6569,2.6568,2.6567,2.6567,0,2.6492,2.6478,2.6531,2.6529,2.653,2.6569,2.6567,2.6596,2.6588,2.6626,2.6634,2.6621,2.6651,2.6636,2.6668,2.6659,2.6721,2.6709,2.6717,2.6713,2.6758,2.6753,2.6914,2.6933,2.679,2.6792,2.6793,0,2.6568,2.6604,2.6605,2.6622,2.6627,2.6656,2.6671,2.6648,2.6665,2.6677,2.6704,2.6731,2.6751,2.68,2.6794,2.6817,2.6804,2.6858,2.6807,2.6811,2.6801,2.6798,2.68,2.6868,2.687,2.6871,2.6872,0,2.6703,2.6693,2.6716,2.6735,2.6754,2.6769,2.6781,2.6797,2.6774,2.6795,2.6824,2.6839,2.687,2.6896,2.6915,2.6918,2.6891,2.6889,2.69,2.6905,2.6907,2.6904,2.6742,2.6885,2.6884,2.6883,2.6882,2.6881,2.6802,2.6831,2.6835,2.6861,2.6867,2.6878,2.6904,2.6898,2.6922,2.6944,2.6929,2.6963,2.6969,2.6992,2.6998,2.7024,2.7002,2.7019,2.7023,2.7027,2.7032,2.6905,2.7028,2.7027,2.7027,2.7027,2.7027,0,2.6933,2.6933,2.6957,2.6973,2.6993,2.6965,2.6976,2.6994,2.7024,2.7032,2.7051,2.7083,2.7107,2.7102,2.7124,2.7145,2.7133,2.7152,2.7149,2.7149,2.7052,2.7038,2.7161,2.7161,2.7161,2.7161,2.7161,2.7161,2.7003,2.7049,2.704,2.7088,2.7088,2.7119,2.7128,2.7137,2.7143,2.718,2.7199,2.7195,2.7197,2.7219,2.7239,2.7237,2.7246,2.7268,2.7261,2.717,2.7156,2.7144,2.7131,2.7271,2.7271,2.7356,2.7357,2.7357]},{"header":{"parameterUnit":"m.s-1","parameterCategory":1,"la1":30.2991,"la2":30.254,"lo1":-89.0895,"lo2":-89.0444,"dy":0.0017,"dx":0.0017,"nx":28,"ny":28,"refTime":"2025-08-14T03:00:00:Z","depth":0,"parameterNumber":3,"parameterNumberName":"V-component_of_WINDS"},"data":[0,0,0,0,0,0,0,0,0,0,0,0,0,0,0,0,0,0,0,0,0,0,0,0,0,0,0,0,0,0,0,0,0,0,0,0,0,0,0,0,0,0,0,0,0,0,0,0,0,0,0,0,0,0,0,0,0,0,4.4924,4.4925,0,4.4969,4.4969,4.497,4.4901,4.4899,4.4897,4.4894,4.4935,4.4939,4.4942,0,0,0,0,0,0,0,0,0,0,0,0,0,4.4776,4.4779,4.4924,4.4925,4.4926,4.4969,4.4969,4.497,4.4902,4.4899,4.4896,4.4893,4.4934,4.4938,4.4942,0,0,0,0,0,0,0,0,0,0,0,0,0,4.4832,4.478,4.4924,4.4897,4.4895,4.4968,4.4969,4.497,4.4902,4.4899,4.4895,4.4892,4.4933,4.4938,4.4943,4.5044,0,0,4.4958,4.496,0,0,0,0,0,0,0,0,4.4829,4.4838,4.49,4.4899,4.4897,4.4926,4.4932,4.4995,4.4903,4.4899,4.4894,4.489,4.4935,4.4939,4.4955,4.5046,4.5048,4.4958,4.4961,4.4963,4.4965,0,0,0,0,0,0,0,4.4825,4.4835,4.4942,4.4901,4.4899,4.4881,4.4885,4.4943,4.4936,4.4899,4.4895,4.4901,4.4933,4.4951,4.4956,4.5048,4.4958,4.4962,4.4966,4.4967,4.5222,4.5225,0,0,0,0,0,0,4.4825,4.4833,4.494,4.4943,4.4854,4.4886,4.4891,4.492,4.4935,4.4934,4.4904,4.4898,4.4944,4.495,4.4957,4.5075,4.4963,4.4968,4.4971,4.5218,4.5222,4.5227,0,0,0,0,0,0,4.4822,4.4836,4.4938,4.4887,4.4898,4.4893,4.4926,4.4923,4.494,4.4939,4.4937,4.4924,4.4941,4.495,4.5023,4.5075,4.497,4.4975,4.5213,4.5219,4.5224,4.5313,0,0,0,0,0,0,4.4819,4.4835,4.4875,4.4888,4.4901,4.5005,4.4929,4.4926,4.495,4.4942,4.4957,4.4956,4.4939,4.5016,4.5028,4.508,4.4978,4.5209,4.5216,4.5223,4.5305,4.5321,4.5334,0,0,0,0,0,4.4813,4.4897,4.4877,4.489,4.4951,4.5009,4.5016,4.4996,4.4954,4.4993,4.4992,4.4955,4.5068,4.5024,4.5036,4.5092,4.5205,4.5214,4.5222,4.5299,4.5318,4.5334,0,0,0,0,0,0,4.4889,4.4899,4.4876,4.4967,4.4988,4.4997,4.5045,4.5018,4.5049,4.5041,4.5014,4.5018,4.5095,4.5101,4.5051,4.5189,4.5129,4.5141,4.5183,4.5201,4.5216,4.5212,4.4983,0,0,0,0,0,4.4917,4.4964,4.4969,4.5049,4.506,4.5051,4.5076,4.5059,4.5078,4.5086,4.509,4.511,4.5149,4.5175,4.5212,4.5306,4.5307,4.535,4.5364,4.5376,4.5386,4.5435,4.5453,4.5255,4.5254,4.5254,0,0,4.4973,4.4984,4.5016,4.5064,4.5078,4.5126,4.5059,4.5113,4.5147,4.5094,4.5163,4.5167,4.5186,4.5269,4.5306,4.5276,4.5442,4.5387,4.5397,4.54,4.5445,4.5464,4.5481,4.526,4.5259,4.5258,0,0,4.5101,4.5115,4.5182,4.5198,4.522,4.5213,4.523,4.5243,4.5244,4.5313,4.5273,4.5313,4.5382,4.5397,4.5414,4.5547,4.5514,4.5559,4.5635,4.5682,4.5698,4.5712,4.5758,4.5775,4.5569,4.557,4.557,0,4.5168,4.5241,4.522,4.5277,4.5298,4.5253,4.532,4.5335,4.5368,4.5383,4.5349,4.5434,4.5444,4.553,4.5562,4.5578,4.5594,4.5557,4.5698,4.5711,4.5724,4.5767,4.5785,4.5575,4.5574,4.5574,4.5573,0,4.5321,4.5372,4.5423,4.5457,4.5484,4.5546,4.5533,4.5563,4.5544,4.554,4.561,4.562,4.5657,4.5676,4.5658,4.5759,4.5739,4.5703,4.5641,4.5748,4.5789,4.5805,4.5582,4.5581,4.5579,4.5578,0,0,4.5498,4.5519,4.5538,4.5552,4.5573,4.5611,4.567,4.5707,4.5733,4.5756,4.5803,4.5863,4.5828,4.5847,4.583,4.5872,4.5974,4.5829,4.5829,4.5855,4.6085,4.6112,4.6131,4.5953,4.5956,4.5959,4.6083,0,4.5624,4.5727,4.5709,4.5808,4.5853,4.5811,4.5862,4.5879,4.5877,4.5914,4.5911,4.5953,4.5905,4.5916,4.5956,4.5954,4.602,4.5945,4.5995,4.5997,4.599,4.6153,4.6182,4.6298,4.6098,4.6101,4.6103,0,4.5785,4.5816,4.5919,4.5932,4.595,4.5997,4.6029,4.6065,4.6083,4.6079,4.61,4.6075,4.6131,4.607,4.6146,4.6095,4.6115,4.6117,4.6121,4.6124,4.6056,4.6159,4.6335,4.6352,4.6128,4.6126,4.6124,0,4.5901,4.5968,4.6039,4.6052,4.607,4.6103,4.6111,4.6126,4.6149,4.6177,4.6191,4.6225,4.6243,4.6269,4.6252,4.621,4.6331,4.6269,4.6327,4.6328,4.6354,4.6352,4.6534,4.6369,4.6368,4.6368,4.6368,0,4.6043,4.6108,4.6091,4.6134,4.6205,4.6184,4.6254,4.6257,4.627,4.6312,4.6277,4.6316,4.6293,4.633,4.6318,4.6382,4.639,4.6387,4.6383,4.639,4.639,4.6401,4.6392,4.6373,4.6372,4.6371,4.637,0,4.6184,4.6176,4.625,4.6261,4.6265,4.6316,4.6324,4.6363,4.6359,4.6412,4.6423,4.6415,4.6457,4.6444,4.6488,4.648,4.6561,4.6547,4.6555,4.6551,4.661,4.6604,4.6804,4.6829,4.6649,4.6651,4.6652,0,4.6275,4.6324,4.634,4.6366,4.6377,4.642,4.6443,4.6424,4.645,4.6474,4.651,4.6549,4.6579,4.6648,4.6645,4.6679,4.6664,4.6732,4.6669,4.6674,4.6664,4.666,4.6664,4.6744,4.6747,4.6748,4.675,0,4.6436,4.643,4.6466,4.6501,4.6531,4.6557,4.658,4.6603,4.6584,4.6615,4.6658,4.6682,4.6727,4.6766,4.6796,4.6803,4.6773,4.677,4.6785,4.6792,4.6794,4.6792,4.6588,4.6765,4.6763,4.6762,4.6761,4.6761,4.6554,4.6595,4.6612,4.6654,4.6669,4.6691,4.6728,4.6729,4.6765,4.6802,4.6788,4.6837,4.6852,4.689,4.6901,4.6938,4.6911,4.6933,4.6939,4.6944,4.6951,4.6789,4.6943,4.6943,4.6942,4.6942,4.6942,0,4.6712,4.6721,4.6759,4.6793,4.6825,4.6796,4.6819,4.6847,4.6891,4.6909,4.694,4.6988,4.7026,4.7026,4.706,4.709,4.7077,4.7099,4.7096,4.7098,4.6973,4.6956,4.7109,4.7109,4.7109,4.7109,4.7109,4.7109,4.6797,4.6865,4.686,4.6934,4.6943,4.6992,4.7007,4.7027,4.7041,4.7097,4.7128,4.7129,4.7139,4.7174,4.7206,4.7205,4.7218,4.7246,4.724,4.7123,4.7107,4.7091,4.7075,4.725,4.725,4.7361,4.7362,4.7363]}]]